JO-97
1 43803U 18099AX 24046.11177349 .00013547 00000-0 96470-3 0 9993
2 43803 97.5385 107.6718 0010621 9.4363 350.7061 15.04685449284172
Suomi 100
1 43804U 18099AY 24046.11006951 .00012632 00000-0 91171-3 0 9991
2 43804 97.5459 107.4758 0016735 5.4163 354.7241 15.04128565284167
CHOMPTT
1 43855U 18104G 24046.33795243 .00118518 00000-0 11947-2 0 9999
2 43855 85.0216 358.1754 0012060 103.8776 256.3831 15.64913663288238
ISAT
1 43879U 18111D 24046.24865128 .00013604 00000-0 90672-3 0 9996
2 43879 97.6293 312.8073 0015775 62.2421 298.0404 15.07097317280888
UWE-4
1 43880U 18111E 24046.23874514 .00012199 00000-0 82607-3 0 9993
2 43880 97.6195 313.0936 0019248 69.4737 290.8554 15.06484754280903
Sparrow
1 43881U 18111F 24046.52386154 .00013351 00000-0 88006-3 0 9994
2 43881 97.6367 314.7660 0012765 97.1814 263.0866 15.07548624280982
AISTechSat 3
1 44103U 19018AB 24046.70467441 .00152597 00000-0 12381-2 0 9996
2 44103 97.2071 111.7280 0003954 100.1859 259.9850 15.70264263272279
AISat 1
1 44104U 19018AC 24046.78444274 .00070588 00000-0 68124-3 0 9990
2 44104 97.3635 150.3231 0025363 79.4156 280.9959 15.65841442273569
Prox-1
1 44339U 19036A 24046.11798783 .00016803 00000-0 31061-2 0 9993
2 44339 24.0003 295.2290 0008836 69.6536 290.4906 14.63826657247172
SONATE
1 44400U 19038Q 24046.47832119 .00020533 00000-0 73779-3 0 9993
2 44400 97.7087 35.6951 0018118 172.3606 187.7912 15.28526099255302
BeeSat 9
1 44412U 19038AC 24046.53465462 .00093051 00000-0 15052-2 0 9990
2 44412 97.6873 43.7861 0013260 134.9980 225.2349 15.52409512255588
JAISAT-1
1 44419U 19038F 24046.53131459 .00089162 00000-0 14606-2 0 9995
2 44419 97.6865 44.8739 0012768 134.2312 225.9990 15.52078709255967
Taurus 1
1 44530U 19059C 24046.83184613 .00009382 00000-0 22717-2 0 9993
2 44530 98.5625 164.0891 0012348 71.6510 288.6027 14.53172996233985
Duchifat 3
1 44854U 19089C 24046.46829219 .00016925 00000-0 96705-3 0 9992
2 44854 36.9596 71.4561 0009037 174.3393 185.7456 15.12009892229666
OPS-SAT
1 44878U 19092F 24046.49667471 .00084191 00000-0 12347-2 0 9994
2 44878 97.4569 246.2228 0006249 328.5235 31.5645 15.55231536231307
TO-108
1 44881U 19093C 24046.82299169 .00002273 00000-0 28385-3 0 9992
2 44881 97.8384 125.9632 0014669 8.4905 351.6554 14.83278871224901
FloripaSat 1
1 44885U 19093G 24046.80281334 .00007055 00000-0 76444-3 0 9991
2 44885 97.8479 130.4628 0013058 4.5981 355.5354 14.88456346225157
RS-44
1 44909U 19096E 24046.44525330 .00000039 00000-0 11676-3 0 9999
2 44909 82.5237 186.3137 0216965 338.4539 20.7534 12.79726537193270
BY70-2
1 45857U 20042B 24046.79031696 .00063550 00000-0 41787-2 0 9992
2 45857 97.9154 134.9833 0008439 269.6619 90.3641 15.07282462195993
UPMSat 2
1 46276U 20061E 24046.72969887 .00017793 00000-0 62449-3 0 9991
2 46276 97.3140 114.7361 0001487 139.2214 220.9138 15.29474173191432
AmicalSat
1 46287U 20061R 24046.13160570 .00032621 00000-0 11489-2 0 9994
2 46287 97.3666 114.0438 0001327 343.1766 16.9430 15.29235572190712
AmicalSat
1 46287U 20061R 24046.13160570 .00032621 00000-0 11489-2 0 9994
2 46287 97.3666 114.0438 0001327 343.1766 16.9430 15.29235572190712
SALSAT
1 46495U 20068K 24046.84565204 .00009270 00000-0 55798-3 0 9999
2 46495 97.8015 3.3912 0014986 18.7760 341.4019 15.10960352185823
CAPE 3
1 47309U 21002A 24046.67272722 .02224793 65834-2 15915-2 0 9999
2 47309 60.6480 175.8154 0009889 18.7619 341.3874 16.17081637172231
AO-109
1 47311U 21002C 24046.77973225 .00151200 00000-0 13291-2 0 9996
2 47311 60.6699 187.0165 0024512 68.7067 291.6655 15.67615093172041
ExoCube 2
1 47319U 21002L 24046.60475944 .00135862 00000-0 13398-2 0 9995
2 47319 60.6682 191.7371 0025887 70.5920 289.7981 15.64773365171905
UVSQ-SAT
1 47438U 21006AB 24046.60791219 .00035722 00000-0 10125-2 0 9996
2 47438 97.3475 106.5085 0006526 300.6117 59.4483 15.36146518169857
YUSAT 1
1 47439U 21006AC 24046.70620128 .00064205 00000-0 13991-2 0 9990
2 47439 97.3467 109.0223 0005789 289.9055 70.1569 15.44023573170021
SOMP 2b
1 47445U 21006AJ 24046.10869921 .00040203 00000-0 11984-2 0 9999
2 47445 97.3438 104.7702 0006677 311.3402 48.7266 15.34534521169722
IDEASSat
1 47458U 21006AX 24046.11497939 .00035586 00000-0 11131-2 0 9992
2 47458 97.3541 105.5157 0006360 312.4500 47.6204 15.33033634169687
CubeSX-Sirius-HSE
1 47951U 21022V 24046.75836836 .00020524 00000-0 94278-3 0 9991
2 47951 97.4740 305.8607 0014866 201.8711 158.1892 15.20317720159943
CubeSX-HSE
1 47952U 21022W 24046.78557545 .00021335 00000-0 97735-3 0 9994
2 47952 97.4742 305.9602 0014792 200.8914 159.1718 15.20404136159951
KSU-Cubesat
1 47954U 21022Y 24046.63400242 .00023526 00000-0 10206-2 0 9992
2 47954 97.4748 306.6763 0013951 197.3220 162.7542 15.22259377159706
GRBAlpha
1 47959U 21022AD 24046.82375016 .00021352 00000-0 97523-3 0 9991
2 47959 97.4743 306.1246 0014660 201.0172 159.0462 15.20507938158788
Orbicraft-Zorkiy
1 47960U 21022AE 24046.81991519 .00023457 00000-0 10278-2 0 9993
2 47960 97.4781 307.0239 0014159 197.8865 162.1874 15.21917972159516
STECCO
1 47962U 21022AG 24046.78488029 .00058567 00000-0 16259-2 0 9993
2 47962 97.4750 312.7161 0009237 158.5298 201.6335 15.36654304159217
MO-110
1 47964U 21022AJ 24046.24407354 .00067783 00000-0 17595-2 0 9992
2 47964 97.4767 313.2845 0010436 156.6720 203.5001 15.38680564159191
TUBIN
1 48900U 21059X 24046.71165799 .00018585 00000-0 73322-3 0 9996
2 48900 97.6262 188.3736 0007917 149.2115 210.9589 15.25576999146225
IT-SPINS
1 49017U 21013G 24046.68731897 .00727211 24619-3 15215-2 0 9994
2 49017 51.5706 296.0366 0009504 193.6232 166.4522 15.98318774147677
LEDSAT
1 49069U 21073D 24046.73471515 .00017219 00000-0 79162-3 0 9998
2 49069 97.4523 119.0527 0021068 357.1011 3.0099 15.20223742137820
CUTE
1 49263U 21088D 24046.12056421 .00021594 00000-0 11587-2 0 9995
2 49263 97.5138 113.3119 0016439 144.1106 216.1234 15.14849007130987
TeikyoSat 4
1 49396U 21102B 24046.09044213 .00004741 00000-0 35114-3 0 9999
2 49396 97.4778 95.2780 0013329 339.4290 20.6398 15.03524248124250
Z-Sat
1 49399U 21102E 24046.75618062 .00007223 00000-0 48411-3 0 9996
2 49399 97.4506 97.2349 0020097 320.6492 39.3274 15.07002842124548
KOSEN 1
1 49402U 21102H 24046.69028448 .00009005 00000-0 56303-3 0 9996
2 49402 97.4433 98.2212 0018519 306.0679 53.8834 15.09514447124659
HO-113
1 50466U 21131B 24046.79109136 .00001308 00000-0 43485-3 0 9990
2 50466 98.5339 132.4501 0005143 125.9021 234.2644 14.39364897112394
Tevel-3
1 50988U 22002E 24046.72891308 .00063826 00000-0 14817-2 0 9998
2 50988 97.3981 119.1021 0005216 87.6756 272.5089 15.42137479116056
Tevel-8
1 50989U 22002F 24046.76033977 .00059164 00000-0 13792-2 0 9994
2 50989 97.3998 119.2181 0005097 85.6297 274.5532 15.42033723116050
Tevel-5
1 50998U 22002Q 24046.67672588 .00069082 00000-0 15006-2 0 9991
2 50998 97.3976 119.8660 0005646 78.6978 281.4905 15.44097257116103
Tevel-6
1 50999U 22002R 24046.67709323 .00068640 00000-0 14932-2 0 9996
2 50999 97.3976 119.8515 0005626 78.4477 281.7402 15.44055556116104
